Culdrose, United Kingdom

11:00 PM GMT on February 13, 2016 (GMT +0000)
Culdrose Navy

Weather History for EGDR - March, 2013

Change the Weather History Date:

Sunday, March 24, 2013

  Actual Average Record
Temperature  
Mean Temperature 37 °F -  
Max Temperature 39 °F 50 °F 59 °F (2012)
Min Temperature 35 °F 42 °F 32 °F (2014)
Degree Days  
Heating Degree Days 28    
Moisture  
Dew Point 36 °F    
Average Humidity 91    
Maximum Humidity 93    
Minimum Humidity 84    
Precipitation  
Precipitation 0.00 in - - ()
Sea Level Pressure  
Sea Level Pressure 29.78 in    
Wind  
Wind Speed 19 mph ()    
Max Wind Speed 28 mph    
Max Gust Speed 40 mph    
Visibility 2.0 miles    
Events Rain    
Averages and records for this station are not official NWS values.
T = Trace of Precipitation, MM = Missing Value Source: Averaged Metar Reports

Daily Weather History Graph

Daily Weather History Graph

Search for Another Location

Airport or City:

Trip Planner

Search our weather history database for the weather conditions in past years. The results will help you decide how hot, cold, wet, or windy it might be!

Date:

Astronomy

Mar. 24, 2013 Rise Set
Actual Time 6:14 AM GMT 6:40 PM GMT
Civil Twilight 5:42 AM GMT 7:12 PM GMT
Nautical Twilight 5:04 AM GMT 7:51 PM GMT
Astronomical Twilight 4:24 AM GMT 8:31 PM GMT
Moon 3:40 PM GMT (3/24) 4:33 AM GMT (3/24)
Length of Visible Light 13h 30m
Length of Day
12h 25m
Waxing Gibbous, 90% of the Moon is Illuminated
Mar 24
Waxing Gibbous
Mar 27
Full
Apr 3
Last Quarter
Apr 10
New
Apr 18
First Quarter

Hourly Weather History & Observations

Time (GMT) Temp. Windchill Dew Point Humidity Pressure Visibility Wind Dir Wind Speed Gust Speed Precip Events Conditions
12:50 AM 39.2 °F 28.7 °F 37.4 °F 93% 29.74 in 2.2 mi East 23.0 mph 38.0 mph N/A   Haze
1:50 AM 39.2 °F 29.0 °F 37.4 °F 93% 29.71 in 1.9 mi East 21.9 mph 38.0 mph N/A   Haze
2:50 AM 39 °F - 37 °F 92% 29.74 in 1 mi East 21.9 mph - - Rain Light Drizzle
2:50 AM 39.2 °F 29.0 °F 37.4 °F 93% 29.71 in 1.2 mi East 21.9 mph 35.7 mph N/A   Light Drizzle
3:50 AM 39.2 °F 29.3 °F 37.4 °F 93% 29.71 in 1.6 mi East 20.7 mph 34.5 mph N/A   Light Drizzle
4:50 AM 39.2 °F 28.7 °F 37.4 °F 93% 29.71 in 1.6 mi East 23.0 mph 38.0 mph N/A   Haze
5:50 AM 39 °F - 37 °F 90% 29.75 in 2 mi East 24.2 mph - -   Haze
5:50 AM 39.2 °F 28.5 °F 37.4 °F 93% 29.71 in 1.9 mi East 24.2 mph 40.3 mph N/A   Haze
6:50 AM 39.2 °F 28.7 °F 37.4 °F 93% 29.71 in 1.1 mi East 23.0 mph 36.8 mph N/A   Haze
7:50 AM 39.2 °F 29.0 °F 37.4 °F 93% 29.74 in 1.2 mi East 21.9 mph 36.8 mph N/A   Haze
8:50 AM 39 °F - 37 °F 90% 29.76 in 1 mi East 27.6 mph - -   Haze
8:50 AM 39.2 °F 27.8 °F 37.4 °F 93% 29.74 in 1.5 mi East 27.6 mph - N/A   Haze
9:50 AM 39.2 °F 29.3 °F 37.4 °F 93% 29.77 in 1.6 mi East 20.7 mph 33.4 mph N/A   Haze
10:50 AM 39.2 °F 29.3 °F 37.4 °F 93% 29.77 in 1.9 mi East 20.7 mph 35.7 mph N/A   Haze
11:50 AM 39 °F - 37 °F 91% 29.79 in 1 mi East 20.7 mph - -   Haze
11:50 AM 39.2 °F 29.3 °F 37.4 °F 93% 29.77 in 1.5 mi East 20.7 mph 35.7 mph N/A   Haze
12:50 PM 39.2 °F 29.3 °F 37.4 °F 93% 29.77 in 1.6 mi East 20.7 mph 33.4 mph N/A   Haze
1:50 PM 39.2 °F 29.6 °F 37.4 °F 93% 29.77 in 1.9 mi East 19.6 mph 32.2 mph N/A   Haze
2:50 PM 39 °F - 36 °F 85% 29.80 in 2 mi East 19.6 mph - -   Haze
2:50 PM 39.2 °F 29.6 °F 35.6 °F 87% 29.77 in 1.6 mi East 19.6 mph - N/A   Haze
3:50 PM 39.2 °F 29.8 °F 35.6 °F 87% 29.80 in 1.6 mi East 18.4 mph - N/A   Haze
4:50 PM 39.2 °F 29.3 °F 35.6 °F 87% 29.80 in 1.6 mi East 20.7 mph 32.2 mph N/A   Haze
5:50 PM 38 °F - 35 °F 86% 29.84 in 2 mi East 20.7 mph - -   Haze
5:50 PM 37.4 °F 26.9 °F 35.6 °F 93% 29.83 in 1.9 mi East 20.7 mph - N/A   Haze
6:50 PM 37.4 °F 27.2 °F 35.6 °F 93% 29.83 in 1.9 mi East 19.6 mph 33.4 mph N/A   Haze
7:50 PM 37.4 °F 27.8 °F 35.6 °F 93% 29.86 in 2.5 mi East 17.3 mph 29.9 mph N/A   Light Drizzle
8:50 PM 36 °F - 34 °F 89% 29.88 in 2 mi East 16.1 mph - - Rain Light Drizzle
8:50 PM 37.4 °F 28.2 °F 33.8 °F 87% 29.86 in 2.5 mi East 16.1 mph 31.1 mph N/A   Light Drizzle
9:50 PM 35.6 °F 25.2 °F 33.8 °F 93% 29.86 in 1.9 mi East 18.4 mph - N/A   Light Drizzle
10:50 PM 35.6 °F 25.9 °F 32.0 °F 87% 29.86 in 5.0 mi East 16.1 mph 27.6 mph N/A   Haze
11:50 PM 35 °F - 32 °F 84% 29.89 in 5 mi East 12.7 mph - -   Haze
11:50 PM 35.6 °F 27.1 °F 32.0 °F 87% 29.86 in 5.0 mi East 12.7 mph - N/A   Haze